TimeEDT,TemperatureF,Dew PointF,Humidity,Sea Level PressureIn,VisibilityMPH,Wind Direction,Wind SpeedMPH,Gust SpeedMPH,PrecipitationIn,Events,Conditions,WindDirDegrees,DateUTC
12:53 AM,53.1,50.0,89,29.59,3.0,NNE,11.5,-,0.11,Rain,Rain,30,2013-06-14 04:53:00
1:06 AM,53.6,50.0,88,29.60,3.0,NNE,9.2,17.3,0.05,Rain,Rain,30,2013-06-14 05:06:00
1:29 AM,53.6,50.0,88,29.60,3.0,NNE,8.1,-,0.12,Rain,Rain,30,2013-06-14 05:29:00
1:53 AM,53.1,50.0,89,29.61,3.0,North,12.7,17.3,0.19,Rain,Rain,10,2013-06-14 05:53:00
2:04 AM,53.6,48.2,82,29.62,4.0,NNE,11.5,-,0.03,Rain,Rain,20,2013-06-14 06:04:00
2:12 AM,51.8,48.2,88,29.62,4.0,NNE,11.5,-,0.04,Rain,Rain,20,2013-06-14 06:12:00
2:28 AM,51.8,48.2,88,29.62,4.0,North,11.5,18.4,0.07,Rain,Rain,10,2013-06-14 06:28:00
2:41 AM,51.8,48.2,88,29.63,5.0,NNE,11.5,19.6,0.09,Rain,Rain,20,2013-06-14 06:41:00
2:53 AM,52.0,48.9,89,29.63,6.0,NNE,11.5,18.4,0.11,Rain,Light Rain,20,2013-06-14 06:53:00
3:18 AM,51.8,48.2,88,29.64,6.0,NNE,12.7,19.6,0.03,Rain,Light Rain,20,2013-06-14 07:18:00
3:53 AM,52.0,48.9,89,29.65,8.0,North,10.4,-,0.06,Rain,Light Rain,10,2013-06-14 07:53:00
4:12 AM,51.8,48.2,88,29.65,7.0,North,10.4,-,0.01,Rain,Light Rain,10,2013-06-14 08:12:00
4:36 AM,51.8,48.2,88,29.65,6.0,NNE,9.2,16.1,0.03,Rain,Light Rain,20,2013-06-14 08:36:00
4:53 AM,52.0,48.0,86,29.65,6.0,NNE,9.2,-,0.06,Rain,Rain,30,2013-06-14 08:53:00
5:31 AM,51.8,48.2,88,29.68,7.0,North,8.1,-,0.05,Rain,Light Rain,350,2013-06-14 09:31:00
5:53 AM,52.0,48.0,86,29.68,9.0,North,9.2,17.3,0.06,Rain,Light Rain,360,2013-06-14 09:53:00
6:29 AM,51.8,48.2,88,29.70,10.0,North,5.8,-,0.01,,Overcast,10,2013-06-14 10:29:00
6:53 AM,53.1,48.9,86,29.70,10.0,North,6.9,-,0.01,,Overcast,360,2013-06-14 10:53:00
7:53 AM,54.0,48.0,80,29.71,10.0,North,9.2,-,N/A,,Overcast,10,2013-06-14 11:53:00
8:53 AM,55.9,48.9,77,29.73,10.0,North,5.8,-,N/A,,Overcast,10,2013-06-14 12:53:00
9:53 AM,57.0,48.9,74,29.76,10.0,North,8.1,-,N/A,,Overcast,360,2013-06-14 13:53:00
10:53 AM,60.1,48.9,67,29.78,10.0,NE,5.8,-,N/A,,Overcast,40,2013-06-14 14:53:00
11:53 AM,61.0,48.9,64,29.80,10.0,NNE,8.1,-,N/A,,Mostly Cloudy,30,2013-06-14 15:53:00
12:53 PM,64.9,52.0,63,29.78,10.0,Calm,Calm,-,N/A,,Mostly Cloudy,0,2013-06-14 16:53:00
1:10 PM,64.4,51.8,64,29.79,10.0,Variable,5.8,-,N/A,,Mostly Cloudy,0,2013-06-14 17:10:00
1:53 PM,66.0,53.1,63,29.78,10.0,West,5.8,-,N/A,,Mostly Cloudy,260,2013-06-14 17:53:00
2:53 PM,66.9,53.1,61,29.78,10.0,Calm,Calm,-,N/A,,Overcast,0,2013-06-14 18:53:00
3:53 PM,70.0,55.0,59,29.77,10.0,Calm,Calm,-,N/A,,Partly Cloudy,0,2013-06-14 19:53:00
4:53 PM,68.0,55.0,63,29.79,7.0,NNW,4.6,-,0.00,Rain,Light Rain,340,2013-06-14 20:53:00
5:53 PM,68.0,59.0,73,29.80,10.0,Calm,Calm,-,0.01,,Partly Cloudy,0,2013-06-14 21:53:00
6:53 PM,66.9,57.9,73,29.81,10.0,WSW,6.9,-,N/A,,Clear,240,2013-06-14 22:53:00
7:53 PM,63.0,55.9,78,29.83,10.0,Calm,Calm,-,N/A,,Clear,0,2013-06-14 23:53:00
8:53 PM,59.0,55.0,87,29.84,10.0,Calm,Calm,-,N/A,,Clear,0,2013-06-15 00:53:00
9:53 PM,57.0,54.0,89,29.86,10.0,WSW,3.5,-,N/A,,Clear,250,2013-06-15 01:53:00
10:53 PM,57.0,53.1,87,29.87,10.0,West,3.5,-,N/A,,Clear,270,2013-06-15 02:53:00
11:53 PM,55.9,53.1,90,29.88,10.0,Calm,Calm,-,N/A,,Clear,0,2013-06-15 03:53:00